timestamp,wind_dir_avg,wind_spd_avg,wind_spd_max_dir,wind_spd_gust,battery_voltage,lat,long
2024-02-02 00:04:00+00:00,305.0,0.57,300.0,0.79,12.25,47.59359,-54.27349
2024-02-02 00:14:00+00:00,358.0,0.29,315.0,0.63,12.25,47.59359,-54.27349
2024-02-02 00:24:00+00:00,310.0,0.44,309.0,0.6,12.25,47.59359,-54.27349
2024-02-02 00:34:00+00:00,345.0,0.24,296.0,0.45,12.25,47.59359,-54.27349
2024-02-02 00:44:00+00:00,263.0,0.47,262.0,0.73,12.25,47.59359,-54.27349
2024-02-02 00:54:00+00:00,254.0,1.66,255.0,1.92,12.25,47.59359,-54.27349
2024-02-02 01:04:00+00:00,238.0,1.83,237.0,2.1,12.25,47.59359,-54.27349
2024-02-02 01:14:00+00:00,228.0,1.74,224.0,1.99,12.25,47.59359,-54.27349
2024-02-02 01:24:00+00:00,220.0,1.21,226.0,1.44,12.25,47.59359,-54.27349
2024-02-02 01:34:00+00:00,253.0,1.91,253.0,2.07,12.25,47.59359,-54.27349
2024-02-02 01:44:00+00:00,252.0,2.9,258.0,3.18,12.25,47.59359,-54.27349
2024-02-02 01:54:00+00:00,232.0,3.63,230.0,4.05,12.25,47.59359,-54.27349
2024-02-02 02:04:00+00:00,233.0,3.6,229.0,4.01,12.25,47.59359,-54.27349
2024-02-02 02:14:01+00:00,236.0,2.79,242.0,3.15,12.17,47.59359,-54.27349
2024-02-02 02:24:01+00:00,224.0,3.81,227.0,4.57,12.17,47.59359,-54.27349
2024-02-02 02:34:01+00:00,228.0,4.37,228.0,4.8,12.17,47.59359,-54.27349
2024-02-02 02:44:01+00:00,210.0,3.72,210.0,4.27,12.17,47.59359,-54.27349
2024-02-02 02:54:01+00:00,201.0,3.95,198.0,4.4,12.17,47.59359,-54.27349
2024-02-02 03:04:01+00:00,215.0,3.56,217.0,4.83,12.17,47.59359,-54.27349
2024-02-02 03:14:00+00:00,194.0,3.18,208.0,3.77,12.17,47.59359,-54.27349
2024-02-02 03:24:00+00:00,182.0,3.68,184.0,4.05,12.17,47.59359,-54.27349
2024-02-02 03:34:00+00:00,197.0,4.31,195.0,4.86,12.17,47.59359,-54.27349
2024-02-02 03:44:00+00:00,177.0,4.07,180.0,4.52,12.17,47.59359,-54.27349
2024-02-02 03:54:00+00:00,181.0,3.57,189.0,4.03,12.17,47.59359,-54.27349
2024-02-02 04:04:00+00:00,164.0,3.49,160.0,3.93,12.17,47.59359,-54.27349
2024-02-02 04:14:00+00:00,173.0,3.86,171.0,4.2,12.17,47.59359,-54.27349
2024-02-02 04:24:00+00:00,186.0,3.76,183.0,4.26,12.17,47.59359,-54.27349
2024-02-02 04:34:00+00:00,177.0,4.84,165.0,5.55,12.17,47.59359,-54.27349
2024-02-02 04:44:00+00:00,179.0,5.36,180.0,6.06,12.17,47.59359,-54.27349
2024-02-02 04:54:00+00:00,197.0,4.17,194.0,5.45,12.17,47.59359,-54.27349
2024-02-02 05:04:00+00:00,190.0,6.07,186.0,7.22,12.17,47.59359,-54.27349
2024-02-02 05:14:00+00:00,180.0,5.46,201.0,6.25,12.17,47.59359,-54.27349
2024-02-02 05:24:00+00:00,186.0,5.34,201.0,6.54,12.17,47.59359,-54.27349
2024-02-02 05:34:00+00:00,230.0,8.07,239.0,10.99,12.17,47.59359,-54.27349
2024-02-02 05:44:00+00:00,212.0,7.21,224.0,8.6,12.17,47.59359,-54.27349
2024-02-02 05:54:00+00:00,212.0,7.48,217.0,8.34,12.17,47.59359,-54.27349
2024-02-02 06:04:00+00:00,211.0,7.89,217.0,9.34,12.17,47.59359,-54.27349
2024-02-02 06:14:00+00:00,213.0,7.56,223.0,8.55,12.17,47.59359,-54.27349
2024-02-02 06:24:00+00:00,210.0,8.16,218.0,9.45,12.17,47.59359,-54.27349
2024-02-02 06:34:00+00:00,215.0,7.07,211.0,8.33,12.17,47.59359,-54.27349
2024-02-02 06:44:00+00:00,225.0,8.33,234.0,9.54,12.17,47.59359,-54.27349
2024-02-02 06:54:00+00:00,224.0,7.25,229.0,8.99,12.17,47.59359,-54.27349
2024-02-02 07:04:00+00:00,224.0,7.52,240.0,9.23,12.17,47.59359,-54.27349
2024-02-02 07:14:00+00:00,219.0,6.99,231.0,8.2,12.09,47.59359,-54.27349
2024-02-02 07:24:00+00:00,206.0,6.92,205.0,7.61,12.09,47.59359,-54.27349
2024-02-02 07:34:00+00:00,217.0,7.39,216.0,8.0,12.09,47.59359,-54.27349
2024-02-02 07:44:00+00:00,219.0,5.94,222.0,7.34,12.09,47.59359,-54.27349
2024-02-02 07:54:00+00:00,222.0,6.63,229.0,7.93,12.09,47.59359,-54.27349
2024-02-02 08:04:00+00:00,216.0,6.81,225.0,7.53,12.09,47.59359,-54.27349
2024-02-02 08:14:00+00:00,213.0,8.01,222.0,8.85,12.09,47.59359,-54.27349
2024-02-02 08:24:00+00:00,219.0,6.49,220.0,7.63,12.09,47.59359,-54.27349
2024-02-02 08:34:00+00:00,214.0,7.6,214.0,8.62,12.09,47.59359,-54.27349
2024-02-02 08:44:00+00:00,218.0,6.46,234.0,8.02,12.09,47.59359,-54.27349
2024-02-02 08:54:00+00:00,220.0,6.44,218.0,6.96,12.09,47.59359,-54.27349
2024-02-02 09:04:00+00:00,211.0,7.61,220.0,8.6,12.09,47.59359,-54.27349
2024-02-02 09:14:00+00:00,206.0,8.38,207.0,9.11,12.09,47.59359,-54.27349
2024-02-02 09:24:00+00:00,215.0,6.4,211.0,7.49,12.09,47.59359,-54.27349
2024-02-02 09:34:00+00:00,215.0,6.1,214.0,6.91,12.09,47.59359,-54.27349
2024-02-02 09:44:00+00:00,214.0,7.52,218.0,8.38,12.09,47.59359,-54.27349
2024-02-02 09:54:00+00:00,213.0,7.23,222.0,7.82,12.09,47.59359,-54.27349
2024-02-02 10:04:00+00:00,198.0,7.86,199.0,8.91,12.09,47.59359,-54.27349
2024-02-02 10:14:00+00:00,200.0,8.32,200.0,9.01,12.09,47.59359,-54.27349
2024-02-02 10:24:00+00:00,198.0,8.01,198.0,9.21,12.09,47.59359,-54.27349
2024-02-02 10:34:00+00:00,214.0,7.56,213.0,8.29,12.09,47.59359,-54.27349
2024-02-02 10:44:00+00:00,205.0,8.93,204.0,10.01,12.09,47.59359,-54.27349
2024-02-02 10:54:00+00:00,209.0,7.02,208.0,7.88,12.09,47.59359,-54.27349
2024-02-02 11:04:00+00:00,210.0,7.2,205.0,8.92,12.09,47.59359,-54.27349
2024-02-02 11:14:00+00:00,201.0,8.25,199.0,9.22,12.09,47.59359,-54.27349
2024-02-02 11:24:00+00:00,209.0,7.87,210.0,8.53,12.09,47.59359,-54.27349
2024-02-02 11:34:00+00:00,206.0,7.67,202.0,8.83,12.09,47.59359,-54.27349
2024-02-02 11:44:00+00:00,201.0,8.07,201.0,8.82,12.09,47.59359,-54.27349
2024-02-02 11:54:00+00:00,207.0,7.84,209.0,9.19,12.09,47.59359,-54.27349
2024-02-02 12:04:00+00:00,205.0,8.38,200.0,9.23,12.09,47.59359,-54.27349
2024-02-02 12:14:00+00:00,208.0,8.9,203.0,11.3,12.09,47.59359,-54.27349
2024-02-02 12:24:00+00:00,200.0,8.49,195.0,9.91,12.09,47.59359,-54.27349
2024-02-02 12:34:00+00:00,213.0,8.97,208.0,10.63,12.09,47.59359,-54.27349
2024-02-02 12:44:00+00:00,210.0,8.27,206.0,9.3,12.09,47.59359,-54.27349
2024-02-02 12:54:00+00:00,203.0,8.9,201.0,9.85,12.09,47.59359,-54.27349
2024-02-02 13:04:00+00:00,200.0,7.72,197.0,8.32,12.09,47.59359,-54.27349
2024-02-02 13:14:00+00:00,203.0,7.65,201.0,8.25,12.49,47.59359,-54.27349
2024-02-02 13:24:00+00:00,201.0,8.44,205.0,9.97,12.49,47.59359,-54.27349
2024-02-02 13:34:00+00:00,212.0,7.97,203.0,9.42,12.49,47.59359,-54.27349
2024-02-02 13:44:00+00:00,207.0,7.27,210.0,8.43,12.49,47.59359,-54.27349
2024-02-02 13:54:00+00:00,207.0,7.48,208.0,8.27,12.49,47.59359,-54.27349
2024-02-02 14:04:00+00:00,212.0,6.54,213.0,7.37,12.49,47.59359,-54.27349
2024-02-02 14:14:00+00:00,210.0,7.33,206.0,8.99,12.81,47.59359,-54.27349
2024-02-02 14:24:00+00:00,209.0,6.84,216.0,7.75,12.81,47.59359,-54.27349
2024-02-02 14:34:00+00:00,221.0,5.95,221.0,6.48,12.81,47.59359,-54.27349
2024-02-02 14:44:00+00:00,217.0,4.82,214.0,5.29,12.81,47.59359,-54.27349
2024-02-02 14:54:00+00:00,210.0,5.54,212.0,6.3,12.81,47.59359,-54.27349
2024-02-02 15:04:00+00:00,217.0,4.96,218.0,5.71,12.81,47.59359,-54.27349
2024-02-02 15:14:00+00:00,196.0,5.66,190.0,6.51,12.81,47.59359,-54.27349
2024-02-02 15:24:00+00:00,208.0,5.4,207.0,5.82,12.81,47.59359,-54.27349
2024-02-02 15:34:00+00:00,220.0,4.91,218.0,5.81,12.81,47.59359,-54.27349
2024-02-02 15:44:00+00:00,214.0,4.86,216.0,5.5,12.81,47.59359,-54.27349
2024-02-02 15:54:00+00:00,211.0,5.39,211.0,6.07,12.81,47.59359,-54.27349
2024-02-02 16:04:00+00:00,210.0,4.93,210.0,5.83,12.81,47.59359,-54.27349
2024-02-02 16:14:00+00:00,178.0,4.56,182.0,4.81,12.97,47.59359,-54.27349
2024-02-02 16:24:00+00:00,212.0,5.37,209.0,6.12,12.97,47.59359,-54.27349
2024-02-02 16:34:00+00:00,199.0,5.89,200.0,6.62,12.97,47.59359,-54.27349
2024-02-02 16:44:00+00:00,188.0,4.39,185.0,4.7,12.97,47.59359,-54.27349
2024-02-02 16:54:00+00:00,204.0,4.3,206.0,4.77,12.97,47.59359,-54.27349
2024-02-02 17:04:00+00:00,187.0,4.43,186.0,4.73,12.97,47.59359,-54.27349
2024-02-02 17:14:00+00:00,196.0,4.15,196.0,4.79,13.05,47.59359,-54.27349
2024-02-02 17:24:00+00:00,176.0,3.95,175.0,4.25,13.05,47.59359,-54.27349
2024-02-02 17:34:00+00:00,189.0,4.37,193.0,4.9,13.05,47.59359,-54.27349
2024-02-02 17:44:00+00:00,171.0,4.1,168.0,4.43,13.05,47.59359,-54.27349
2024-02-02 17:54:00+00:00,201.0,4.87,203.0,5.36,13.05,47.59359,-54.27349
2024-02-02 18:04:00+00:00,195.0,3.88,202.0,4.32,13.05,47.59359,-54.27349
2024-02-02 18:14:00+00:00,171.0,5.78,172.0,6.86,12.89,47.59359,-54.27349
2024-02-02 18:24:00+00:00,176.0,6.75,177.0,7.97,12.89,47.59359,-54.27349
2024-02-02 18:34:00+00:00,166.0,5.18,166.0,5.93,12.89,47.59359,-54.27349
2024-02-02 18:44:00+00:00,189.0,5.28,189.0,5.89,12.89,47.59359,-54.27349
2024-02-02 18:54:00+00:00,191.0,5.11,194.0,5.63,12.89,47.59359,-54.27349
2024-02-02 19:04:00+00:00,201.0,5.3,198.0,5.9,12.89,47.59359,-54.27349
2024-02-02 19:14:00+00:00,200.0,5.36,200.0,6.29,12.73,47.59359,-54.27349
2024-02-02 19:24:00+00:00,195.0,5.75,195.0,6.76,12.73,47.59359,-54.27349
2024-02-02 19:34:00+00:00,216.0,4.7,218.0,5.19,12.73,47.59359,-54.27349
2024-02-02 19:44:00+00:00,217.0,4.37,215.0,4.87,12.73,47.59359,-54.27349
2024-02-02 19:54:00+00:00,215.0,3.6,211.0,3.91,12.73,47.59359,-54.27349
2024-02-02 20:04:00+00:00,211.0,4.57,213.0,5.1,12.73,47.59359,-54.27349
2024-02-02 20:14:00+00:00,197.0,3.98,196.0,4.35,12.41,47.59359,-54.27349
2024-02-02 20:24:00+00:00,183.0,4.21,182.0,4.6,12.41,47.59359,-54.27349
2024-02-02 20:34:00+00:00,182.0,4.61,184.0,5.4,12.41,47.59359,-54.27349
2024-02-02 20:44:00+00:00,164.0,4.3,170.0,4.73,12.41,47.59359,-54.27349
2024-02-02 20:54:00+00:00,180.0,3.38,191.0,3.89,12.41,47.59359,-54.27349
2024-02-02 21:04:00+00:00,178.0,3.59,180.0,4.18,12.41,47.59359,-54.27349
2024-02-02 21:14:00+00:00,183.0,3.64,178.0,4.06,12.33,47.59359,-54.27349
2024-02-02 21:24:00+00:00,165.0,3.54,165.0,4.02,12.33,47.59359,-54.27349
2024-02-02 21:34:00+00:00,181.0,3.15,179.0,3.61,12.33,47.59359,-54.27349
2024-02-02 21:44:00+00:00,202.0,3.1,201.0,3.46,12.33,47.59359,-54.27349
2024-02-02 21:54:00+00:00,172.0,3.57,170.0,4.06,12.33,47.59359,-54.27349
2024-02-02 22:04:00+00:00,172.0,3.37,168.0,3.69,12.33,47.59359,-54.27349
2024-02-02 22:14:00+00:00,183.0,3.15,188.0,3.44,12.25,47.59359,-54.27349
2024-02-02 22:24:00+00:00,184.0,2.88,186.0,3.33,12.25,47.59359,-54.27349
2024-02-02 22:34:00+00:00,152.0,3.2,160.0,3.49,12.25,47.59359,-54.27349
2024-02-02 22:44:00+00:00,155.0,2.97,155.0,3.51,12.25,47.59359,-54.27349
2024-02-02 22:54:00+00:00,178.0,2.15,172.0,2.7,12.25,47.59359,-54.27349
2024-02-02 23:04:00+00:00,193.0,3.63,190.0,4.8,12.25,47.59359,-54.27349
2024-02-02 23:14:00+00:00,181.0,3.98,184.0,4.29,12.25,47.59359,-54.27349
2024-02-02 23:24:00+00:00,168.0,3.23,165.0,3.54,12.25,47.59359,-54.27349
2024-02-02 23:34:00+00:00,171.0,3.05,162.0,3.54,12.25,47.59359,-54.27349
2024-02-02 23:44:00+00:00,179.0,3.7,168.0,4.24,12.25,47.59359,-54.27349
2024-02-02 23:54:00+00:00,167.0,3.3,169.0,3.49,12.25,47.59359,-54.27349
